QPF
0.00 0.00 0.00 0.01 0.08 0.10 0.02 0.00 0.00 0.00 0.00 0.00 0.00 0.00 0.00 0.02 0.06 0.09 0.01 0.00 0.00 0.00 0.00 0.00 0.00 0.01 0.01 0.01 0.02 0.02 0.02 0.02 0.01 0.01 0.01 0.01 0.01 0.01 0.01 0.01 0.02 0.02 0.02 0.04 0.03 0.03 0.03 0.02 0.02
0.00 0.00 0.01 0.03 0.10 0.06 0.01 0.00 0.00 0.00 0.00 0.00 0.00 0.00 0.00 0.00 0.00 0.00 0.00 0.00 0.00 0.00 0.00 0.00 0.00 0.00 0.01 0.01 0.02 0.02 0.01 0.02 0.02 0.02 0.02 0.01 0.01 0.02 0.03 0.03 0.03 0.02 0.02 0.02 0.02 0.02 0.02 0.02 0.01
0.00 0.01 0.02 0.05 0.06 0.04 0.01 0.00 0.00 0.00 0.00 0.00 0.00 0.00 0.00 0.00 0.00 0.00 0.00 0.00 0.00 0.00 0.00 0.00 0.00 0.00 0.00 0.01 0.01 0.01 0.01 0.01 0.02 0.03 0.02 0.02 0.02 0.03 0.04 0.04 0.03 0.03 0.02 0.02 0.02 0.02 0.01 0.01 0.01
0.00 0.01 0.03 0.03 0.02 0.01 0.00 0.00 0.00 0.00 0.00 0.00 0.00 0.00 0.00 0.00 0.00 0.00 0.00 0.00 0.00 0.00 0.00 0.00 0.00 0.00 0.00 0.00 0.01 0.01 0.01 0.01 0.01 0.01 0.01 0.01 0.02 0.03 0.04 0.03 0.03 0.04 0.03 0.02 0.02 0.02 0.01 0.01 0.02
0.01 0.02 0.04 0.04 0.02 0.00 0.00 0.00 0.00 0.00 0.00 0.00 0.00 0.02 0.02 0.00 0.00 0.00 0.00 0.00 0.00 0.00 0.00 0.00 0.00 0.00 0.00 0.01 0.01 0.01 0.01 0.01 0.01 0.01 0.01 0.01 0.02 0.03 0.02 0.02 0.03 0.03 0.02 0.02 0.02 0.02 0.01 0.01 0.02
0.02 0.03 0.04 0.08 0.04 0.01 0.00 0.00 0.00 0.00 0.00 0.00 0.00 0.01 0.03 0.00 0.00 0.00 0.00 0.00 0.00 0.00 0.00 0.00 0.00 0.00 0.01 0.01 0.01 0.01 0.01 0.01 0.02 0.02 0.01 0.02 0.02 0.02 0.02 0.02 0.02 0.03 0.01 0.01 0.02 0.02 0.01 0.01 0.01
0.04 0.05 0.06 0.07 0.03 0.01 0.00 0.00 0.00 0.00 0.00 0.00 0.00 0.01 0.02 0.00 0.00 0.00 0.00 0.00 0.00 0.00 0.00 0.00 0.00 0.00 0.00 0.01 0.01 0.02 0.02 0.02 0.02 0.02 0.01 0.01 0.02 0.02 0.02 0.02 0.02 0.03 0.01 0.01 0.01 0.01 0.01 0.01 0.01
0.01 0.03 0.03 0.02 0.02 0.01 0.00 0.00 0.00 0.00 0.00 0.00 0.00 0.02 0.02 0.00 0.00 0.00 0.00 0.00 0.00 0.00 0.00 0.00 0.01 0.01 0.01 0.01 0.01 0.01 0.02 0.03 0.02 0.01 0.01 0.01 0.01 0.01 0.02 0.02 0.02 0.02 0.01 0.01 0.01 0.01 0.01 0.02 0.01
0.01 0.03 0.02 0.01 0.01 0.01 0.00 0.00 0.00 0.00 0.00 0.00 0.00 0.00 0.01 0.00 0.00 0.00 0.00 0.01 0.01 0.02 0.02 0.02 0.01 0.01 0.01 0.00 0.00 0.01 0.01 0.02 0.02 0.01 0.01 0.04 0.07 0.04 0.04 0.04 0.01 0.01 0.02 0.01 0.01 0.01 0.01 0.01 0.01
0.00 0.02 0.01 0.01 0.00 0.00 0.00 0.00 0.00 0.01 0.02 0.04 0.02 0.00 0.00 0.00 0.00 0.00 0.00 0.02 0.05 0.07 0.05 0.03 0.03 0.02 0.01 0.01 0.01 0.02 0.02 0.02 0.03 0.03 0.04 0.11 0.13 0.12 0.07 0.03 0.02 0.01 0.01 0.01 0.01 0.01 0.02 0.03 0.03
0.00 0.01 0.01 0.01 0.01 0.00 0.00 0.00 0.00 0.01 0.03 0.07 0.04 0.02 0.00 0.00 0.00 0.00 0.01 0.02 0.04 0.07 0.08 0.07 0.06 0.05 0.03 0.03 0.02 0.02 0.03 0.06 0.07 0.07 0.08 0.11 0.08 0.06 0.05 0.04 0.02 0.03 0.03 0.05 0.02 0.02 0.05 0.04 0.06
0.00 0.00 0.00 0.00 0.00 0.00 0.00 0.00 0.00 0.00 0.03 0.06 0.06 0.03 0.01 0.00 0.00 0.00 0.00 0.02 0.06 0.09 0.09 0.08 0.06 0.05 0.05 0.04 0.03 0.02 0.03 0.05 0.06 0.07 0.07 0.06 0.07 0.06 0.08 0.09 0.07 0.07 0.08 0.10 0.07 0.06 0.06 0.04 0.04
0.00 0.00 0.00 0.00 0.00 0.00 0.00 0.00 0.00 0.00 0.01 0.03 0.02 0.01 0.00 0.00 0.00 0.00 0.00 0.01 0.02 0.04 0.05 0.05 0.06 0.05 0.06 0.07 0.05 0.04 0.05 0.05 0.06 0.06 0.06 0.05 0.05 0.06 0.08 0.09 0.08 0.06 0.06 0.07 0.09 0.05 0.07 0.05 0.03
0.00 0.00 0.00 0.00 0.00 0.00 0.00 0.00 0.00 0.00 0.00 0.01 0.00 0.00 0.00 0.00 0.00 0.00 0.00 0.00 0.01 0.02 0.02 0.03 0.04 0.06 0.08 0.06 0.06 0.07 0.06 0.06 0.06 0.04 0.04 0.03 0.06 0.06 0.05 0.05 0.06 0.06 0.05 0.06 0.05 0.04 0.05 0.04 0.03
0.00 0.00 0.00 0.00 0.00 0.00 0.00 0.00 0.00 0.00 0.00 0.00 0.00 0.00 0.00 0.00 0.00 0.00 0.00 0.00 0.01 0.01 0.02 0.02 0.02 0.04 0.07 0.07 0.06 0.06 0.05 0.04 0.04 0.05 0.05 0.03 0.04 0.06 0.05 0.05 0.05 0.05 0.05 0.05 0.04 0.05 0.03 0.04 0.03
0.00 0.00 0.00 0.00 0.00 0.00 0.00 0.01 0.01 0.00 0.00 0.00 0.00 0.00 0.00 0.01 0.01 0.00 0.00 0.00 0.00 0.01 0.02 0.02 0.02 0.03 0.05 0.06 0.06 0.05 0.06 0.06 0.05 0.05 0.04 0.03 0.04 0.04 0.05 0.05 0.05 0.05 0.05 0.05 0.05 0.04 0.04 0.06 0.06
0.00 0.00 0.00 0.00 0.00 0.00 0.00 0.01 0.00 0.00 0.00 0.00 0.00 0.00 0.00 0.00 0.00 0.00 0.00 0.01 0.01 0.01 0.01 0.01 0.02 0.02 0.03 0.05 0.07 0.07 0.08 0.10 0.08 0.06 0.05 0.05 0.03 0.03 0.03 0.05 0.07 0.05 0.06 0.05 0.04 0.06 0.04 0.08 0.07
0.00 0.00 0.00 0.00 0.00 0.00 0.00 0.00 0.00 0.00 0.00 0.00 0.00 0.00 0.00 0.00 0.00 0.00 0.00 0.00 0.00 0.01 0.01 0.01 0.02 0.03 0.04 0.06 0.07 0.08 0.10 0.10 0.09 0.08 0.07 0.06 0.03 0.02 0.02 0.03 0.06 0.06 0.07 0.06 0.06 0.08 0.06 0.07 0.05
0.00 0.00 0.00 0.00 0.00 0.00 0.00 0.00 0.00 0.00 0.00 0.00 0.00 0.00 0.00 0.00 0.00 0.00 0.00 0.00 0.00 0.01 0.01 0.02 0.03 0.05 0.05 0.05 0.04 0.06 0.09 0.10 0.10 0.07 0.06 0.07 0.05 0.04 0.04 0.05 0.09 0.07 0.07 0.07 0.07 0.08 0.07 0.06 0.04
0.00 0.00 0.00 0.00 0.00 0.00 0.00 0.00 0.00 0.00 0.00 0.00 0.00 0.01 0.01 0.00 0.00 0.00 0.00 0.00 0.00 0.01 0.02 0.02 0.03 0.05 0.06 0.07 0.06 0.08 0.13 0.13 0.13 0.11 0.13 0.10 0.07 0.07 0.05 0.07 0.09 0.08 0.09 0.08 0.09 0.10 0.11 0.10 0.07
0.00 0.00 0.00 0.00 0.00 0.00 0.00 0.01 0.02 0.02 0.01 0.00 0.00 0.00 0.00 0.00 0.00 0.00 0.00 0.00 0.00 0.01 0.01 0.02 0.03 0.05 0.07 0.10 0.11 0.12 0.17 0.15 0.14 0.14 0.14 0.12 0.10 0.08 0.07 0.07 0.06 0.09 0.08 0.09 0.09 0.09 0.10 0.12 0.09
0.00 0.00 0.00 0.00 0.00 0.00 0.00 0.01 0.03 0.09 0.05 0.01 0.00 0.00 0.00 0.00 0.00 0.00 0.00 0.01 0.01 0.02 0.01 0.02 0.03 0.05 0.06 0.10 0.12 0.11 0.12 0.10 0.09 0.11 0.12 0.12 0.12 0.09 0.07 0.07 0.07 0.07 0.07 0.12 0.07 0.08 0.11 0.12 0.08
0.00 0.00 0.00 0.00 0.00 0.00 0.00 0.00 0.02 0.05 0.03 0.02 0.01 0.00 0.00 0.01 0.00 0.00 0.01 0.01 0.02 0.03 0.02 0.02 0.05 0.07 0.08 0.11 0.11 0.11 0.12 0.12 0.12 0.13 0.15 0.13 0.12 0.09 0.07 0.07 0.09 0.07 0.07 0.10 0.09 0.12 0.09 0.07 0.05
0.00 0.00 0.00 0.00 0.00 0.00 0.00 0.00 0.03 0.04 0.06 0.05 0.02 0.00 0.00 0.01 0.00 0.00 0.01 0.01 0.02 0.04 0.04 0.03 0.05 0.08 0.09 0.10 0.12 0.12 0.14 0.17 0.18 0.16 0.13 0.13 0.13 0.12 0.10 0.11 0.11 0.08 0.08 0.11 0.10 0.11 0.09 0.10 0.09
0.00 0.00 0.00 0.00 0.01 0.02 0.00 0.01 0.03 0.03 0.02 0.01 0.01 0.00 0.00 0.00 0.00 0.00 0.01 0.01 0.01 0.02 0.03 0.04 0.05 0.08 0.09 0.09 0.12 0.12 0.13 0.17 0.17 0.15 0.14 0.13 0.14 0.12 0.12 0.13 0.12 0.10 0.10 0.11 0.12 0.12 0.11 0.10 0.09
0.00 0.00 0.02 0.02 0.02 0.02 0.01 0.02 0.04 0.01 0.00 0.00 0.00 0.00 0.00 0.00 0.00 0.00 0.01 0.01 0.01 0.01 0.02 0.04 0.05 0.07 0.08 0.09 0.14 0.12 0.12 0.14 0.19 0.22 0.19 0.17 0.15 0.12 0.12 0.13 0.11 0.11 0.10 0.10 0.13 0.12 0.11 0.11 0.10
0.00 0.00 0.01 0.01 0.01 0.02 0.02 0.03 0.03 0.01 0.00 0.00 0.00 0.00 0.00 0.00 0.00 0.00 0.00 0.00 0.01 0.01 0.02 0.03 0.05 0.07 0.08 0.10 0.13 0.12 0.12 0.12 0.17 0.21 0.22 0.19 0.17 0.14 0.13 0.12 0.12 0.12 0.13 0.14 0.16 0.12 0.13 0.14 0.11
0.00 0.00 0.00 0.00 0.01 0.01 0.02 0.04 0.06 0.04 0.01 0.00 0.00 0.00 0.00 0.00 0.00 0.00 0.00 0.01 0.02 0.02 0.03 0.04 0.04 0.06 0.08 0.11 0.11 0.08 0.13 0.14 0.15 0.17 0.19 0.19 0.17 0.18 0.17 0.15 0.14 0.12 0.12 0.14 0.15 0.14 0.14 0.16 0.15
0.00 0.00 0.00 0.00 0.01 0.01 0.03 0.04 0.03 0.03 0.02 0.00 0.00 0.00 0.00 0.00 0.01 0.01 0.02 0.03 0.04 0.02 0.03 0.04 0.05 0.06 0.08 0.11 0.10 0.10 0.12 0.14 0.16 0.15 0.16 0.18 0.17 0.16 0.15 0.15 0.15 0.14 0.12 0.14 0.14 0.13 0.13 0.13 0.14
0.00 0.00 0.00 0.00 0.01 0.01 0.01 0.03 0.04 0.06 0.02 0.00 0.00 0.00 0.01 0.00 0.01 0.02 0.01 0.01 0.02 0.02 0.03 0.04 0.06 0.06 0.08 0.11 0.11 0.12 0.14 0.13 0.13 0.13 0.13 0.15 0.16 0.14 0.12 0.13 0.14 0.13 0.13 0.15 0.15 0.14 0.14 0.13 0.13
MSLP
1006.31 1007.11 1007.99 1008.75 1009.25 1009.41 1009.20 1008.69 1008.01 1007.33 1006.79 1006.48 1006.46 1006.67 1007.05 1007.49 1007.90 1008.24 1008.48 1008.67 1008.87 1009.14 1009.52 1010.01 1010.58 1011.17 1011.72 1012.15 1012.46 1012.65 1012.75 1012.83 1012.93 1013.09 1013.32 1013.59 1013.89 1014.15 1014.36 1014.51 1014.60 1014.65 1014.72 1014.81 1014.96 1015.14 1015.35 1015.55 1015.73
1006.56 1007.45 1008.33 1009.02 1009.39 1009.38 1009.00 1008.36 1007.60 1006.88 1006.34 1006.06 1006.07 1006.30 1006.68 1007.10 1007.49 1007.82 1008.08 1008.33 1008.63 1009.02 1009.54 1010.17 1010.85 1011.52 1012.08 1012.51 1012.79 1012.93 1013.00 1013.06 1013.16 1013.34 1013.59 1013.88 1014.18 1014.45 1014.64 1014.76 1014.83 1014.88 1014.94 1015.05 1015.21 1015.41 1015.62 1015.81 1015.96
1006.90 1007.82 1008.65 1009.21 1009.42 1009.23 1008.69 1007.95 1007.13 1006.43 1005.94 1005.73 1005.79 1006.05 1006.43 1006.82 1007.17 1007.45 1007.71 1008.00 1008.37 1008.89 1009.55 1010.31 1011.11 1011.85 1012.47 1012.90 1013.16 1013.28 1013.33 1013.36 1013.45 1013.63 1013.87 1014.16 1014.45 1014.69 1014.86 1014.95 1015.01 1015.05 1015.13 1015.26 1015.45 1015.66 1015.87 1016.04 1016.16
1007.26 1008.16 1008.88 1009.28 1009.30 1008.94 1008.29 1007.48 1006.68 1006.04 1005.65 1005.55 1005.68 1005.98 1006.34 1006.68 1006.96 1007.19 1007.41 1007.70 1008.14 1008.75 1009.52 1010.41 1011.32 1012.15 1012.82 1013.28 1013.54 1013.65 1013.67 1013.69 1013.77 1013.93 1014.16 1014.42 1014.68 1014.89 1015.03 1015.11 1015.16 1015.22 1015.33 1015.49 1015.70 1015.93 1016.13 1016.28 1016.35
1007.57 1008.38 1008.96 1009.19 1009.03 1008.53 1007.81 1007.01 1006.28 1005.76 1005.52 1005.54 1005.77 1006.10 1006.44 1006.72 1006.90 1007.04 1007.20 1007.48 1007.93 1008.61 1009.47 1010.46 1011.47 1012.37 1013.09 1013.59 1013.86 1013.97 1013.99 1014.00 1014.06 1014.20 1014.41 1014.65 1014.87 1015.05 1015.17 1015.25 1015.31 1015.41 1015.55 1015.75 1015.99 1016.23 1016.42 1016.53 1016.56
1007.77 1008.45 1008.84 1008.89 1008.59 1008.00 1007.26 1006.53 1005.93 1005.59 1005.53 1005.70 1006.03 1006.39 1006.71 1006.91 1006.99 1007.03 1007.10 1007.33 1007.78 1008.48 1009.39 1010.45 1011.51 1012.47 1013.23 1013.75 1014.05 1014.17 1014.20 1014.22 1014.29 1014.42 1014.61 1014.83 1015.04 1015.20 1015.32 1015.40 1015.49 1015.62 1015.81 1016.05 1016.32 1016.56 1016.73 1016.81 1016.78
1007.83 1008.33 1008.53 1008.41 1007.99 1007.37 1006.67 1006.06 1005.64 1005.50 1005.63 1005.97 1006.39 1006.79 1007.07 1007.20 1007.18 1007.11 1007.10 1007.26 1007.67 1008.36 1009.28 1010.35 1011.44 1012.41 1013.19 1013.74 1014.06 1014.21 1014.27 1014.32 1014.41 1014.56 1014.76 1014.98 1015.19 1015.35 1015.47 1015.58 1015.70 1015.86 1016.08 1016.35 1016.63 1016.87 1017.02 1017.06 1016.98
1007.75 1008.05 1008.06 1007.80 1007.30 1006.67 1006.06 1005.60 1005.38 1005.45 1005.77 1006.24 1006.76 1007.18 1007.44 1007.50 1007.40 1007.25 1007.16 1007.25 1007.61 1008.26 1009.15 1010.19 1011.25 1012.21 1012.98 1013.53 1013.88 1014.07 1014.18 1014.28 1014.42 1014.62 1014.86 1015.10 1015.32 1015.50 1015.64 1015.76 1015.91 1016.10 1016.34 1016.62 1016.90 1017.12 1017.24 1017.24 1017.14
1007.57 1007.67 1007.52 1007.13 1006.58 1005.98 1005.47 1005.16 1005.12 1005.37 1005.85 1006.44 1007.02 1007.46 1007.70 1007.73 1007.58 1007.37 1007.23 1007.29 1007.60 1008.19 1009.02 1009.99 1010.99 1011.90 1012.64 1013.18 1013.54 1013.77 1013.95 1014.13 1014.35 1014.61 1014.91 1015.19 1015.45 1015.65 1015.80 1015.94 1016.09 1016.29 1016.53 1016.80 1017.06 1017.26 1017.36 1017.33 1017.21
1007.36 1007.29 1006.99 1006.51 1005.93 1005.37 1004.95 1004.77 1004.87 1005.25 1005.82 1006.48 1007.09 1007.55 1007.79 1007.80 1007.65 1007.44 1007.30 1007.34 1007.62 1008.17 1008.92 1009.81 1010.71 1011.54 1012.22 1012.74 1013.11 1013.38 1013.63 1013.89 1014.20 1014.54 1014.91 1015.25 1015.54 1015.77 1015.94 1016.09 1016.24 1016.42 1016.64 1016.88 1017.11 1017.28 1017.35 1017.32 1017.20
1007.20 1006.99 1006.57 1006.02 1005.43 1004.90 1004.55 1004.45 1004.62 1005.06 1005.67 1006.34 1006.95 1007.40 1007.64 1007.69 1007.58 1007.42 1007.33 1007.40 1007.69 1008.20 1008.89 1009.68 1010.48 1011.20 1011.81 1012.28 1012.65 1012.96 1013.27 1013.61 1014.00 1014.43 1014.86 1015.26 1015.60 1015.85 1016.03 1016.17 1016.31 1016.46 1016.65 1016.85 1017.04 1017.19 1017.25 1017.22 1017.13
1007.15 1006.82 1006.33 1005.73 1005.13 1004.62 1004.30 1004.23 1004.41 1004.84 1005.41 1006.03 1006.60 1007.04 1007.30 1007.40 1007.38 1007.33 1007.34 1007.49 1007.81 1008.31 1008.94 1009.65 1010.34 1010.96 1011.48 1011.90 1012.25 1012.58 1012.93 1013.33 1013.79 1014.28 1014.77 1015.22 1015.58 1015.86 1016.05 1016.18 1016.30 1016.43 1016.57 1016.74 1016.91 1017.03 1017.10 1017.10 1017.05
1007.20 1006.81 1006.27 1005.65 1005.05 1004.55 1004.23 1004.13 1004.27 1004.62 1005.09 1005.62 1006.12 1006.53 1006.82 1006.99 1007.09 1007.18 1007.33 1007.60 1007.99 1008.50 1009.10 1009.73 1010.33 1010.85 1011.29 1011.65 1011.97 1012.29 1012.66 1013.09 1013.58 1014.11 1014.63 1015.10 1015.49 1015.78 1015.98 1016.12 1016.22 1016.33 1016.45 1016.60 1016.75 1016.88 1016.97 1017.01 1017.02
1007.36 1006.93 1006.37 1005.76 1005.17 1004.67 1004.34 1004.19 1004.24 1004.47 1004.81 1005.22 1005.63 1006.00 1006.31 1006.57 1006.80 1007.05 1007.36 1007.75 1008.23 1008.78 1009.36 1009.93 1010.45 1010.89 1011.26 1011.56 1011.84 1012.14 1012.49 1012.92 1013.41 1013.93 1014.45 1014.92 1015.31 1015.62 1015.83 1015.98 1016.09 1016.21 1016.33 1016.48 1016.63 1016.78 1016.91 1017.01 1017.08
1007.54 1007.10 1006.56 1005.98 1005.42 1004.95 1004.60 1004.40 1004.34 1004.44 1004.63 1004.91 1005.22 1005.55 1005.88 1006.22 1006.58 1006.98 1007.43 1007.95 1008.51 1009.10 1009.69 1010.22 1010.68 1011.06 1011.36 1011.61 1011.85 1012.12 1012.44 1012.82 1013.27 1013.75 1014.24 1014.69 1015.07 1015.38 1015.62 1015.80 1015.94 1016.09 1016.24 1016.40 1016.59 1016.77 1016.95 1017.11 1017.25
1007.69 1007.27 1006.77 1006.25 1005.75 1005.32 1004.97 1004.73 1004.59 1004.56 1004.62 1004.76 1004.98 1005.26 1005.61 1006.01 1006.48 1007.00 1007.58 1008.20 1008.83 1009.45 1010.03 1010.54 1010.96 1011.30 1011.56 1011.78 1011.99 1012.21 1012.49 1012.81 1013.19 1013.61 1014.03 1014.44 1014.81 1015.12 1015.38 1015.60 1015.80 1015.99 1016.19 1016.40 1016.62 1016.85 1017.08 1017.29 1017.50
1007.74 1007.36 1006.93 1006.51 1006.11 1005.76 1005.44 1005.18 1004.97 1004.84 1004.78 1004.81 1004.94 1005.18 1005.52 1005.97 1006.51 1007.12 1007.78 1008.46 1009.13 1009.76 1010.33 1010.82 1011.23 1011.55 1011.80 1012.01 1012.20 1012.40 1012.63 1012.89 1013.19 1013.52 1013.87 1014.22 1014.55 1014.86 1015.15 1015.42 1015.68 1015.93 1016.18 1016.45 1016.71 1016.99 1017.26 1017.52 1017.77
1007.68 1007.36 1007.04 1006.75 1006.48 1006.23 1005.97 1005.73 1005.48 1005.26 1005.11 1005.04 1005.09 1005.28 1005.61 1006.07 1006.65 1007.31 1008.00 1008.71 1009.38 1010.00 1010.55 1011.02 1011.42 1011.74 1012.01 1012.24 1012.45 1012.64 1012.84 1013.05 1013.27 1013.52 1013.78 1014.06 1014.35 1014.66 1014.96 1015.28 1015.59 1015.90 1016.21 1016.51 1016.82 1017.12 1017.42 1017.72 1018.00
1007.52 1007.29 1007.12 1006.99 1006.87 1006.74 1006.57 1006.35 1006.08 1005.80 1005.55 1005.39 1005.36 1005.49 1005.80 1006.25 1006.83 1007.50 1008.19 1008.88 1009.53 1010.12 1010.64 1011.09 1011.49 1011.84 1012.15 1012.43 1012.67 1012.89 1013.08 1013.26 1013.42 1013.59 1013.78 1013.99 1014.24 1014.52 1014.84 1015.17 1015.53 1015.88 1016.23 1016.56 1016.89 1017.21 1017.52 1017.83 1018.13
1007.31 1007.22 1007.21 1007.27 1007.32 1007.33 1007.24 1007.04 1006.74 1006.39 1006.05 1005.80 1005.68 1005.74 1006.00 1006.42 1006.98 1007.63 1008.30 1008.95 1009.55 1010.10 1010.58 1011.02 1011.43 1011.81 1012.18 1012.52 1012.83 1013.10 1013.32 1013.49 1013.62 1013.74 1013.86 1014.02 1014.21 1014.46 1014.77 1015.11 1015.48 1015.85 1016.22 1016.56 1016.89 1017.20 1017.51 1017.81 1018.12
1007.13 1007.20 1007.40 1007.64 1007.87 1008.00 1007.98 1007.78 1007.44 1006.99 1006.54 1006.17 1005.95 1005.93 1006.12 1006.50 1007.03 1007.65 1008.28 1008.89 1009.44 1009.94 1010.39 1010.81 1011.22 1011.65 1012.08 1012.50 1012.89 1013.23 1013.50 1013.70 1013.83 1013.91 1013.99 1014.09 1014.24 1014.45 1014.73 1015.07 1015.43 1015.80 1016.16 1016.49 1016.80 1017.09 1017.37 1017.66 1017.96
1007.03 1007.30 1007.71 1008.15 1008.54 1008.77 1008.78 1008.55 1008.12 1007.56 1006.97 1006.45 1006.11 1005.99 1006.11 1006.45 1006.94 1007.53 1008.13 1008.70 1009.21 1009.67 1010.08 1010.49 1010.91 1011.37 1011.85 1012.35 1012.82 1013.24 1013.58 1013.82 1013.96 1014.05 1014.10 1014.17 1014.27 1014.45 1014.69 1015.00 1015.34 1015.69 1016.02 1016.33 1016.61 1016.88 1017.13 1017.40 1017.69
1007.03 1007.52 1008.14 1008.77 1009.29 1009.59 1009.60 1009.31 1008.76 1008.04 1007.29 1006.62 1006.14 1005.91 1005.96 1006.25 1006.72 1007.28 1007.87 1008.42 1008.91 1009.33 1009.72 1010.10 1010.53 1011.00 1011.52 1012.07 1012.61 1013.10 1013.51 1013.80 1013.98 1014.07 1014.12 1014.17 1014.24 1014.38 1014.59 1014.87 1015.18 1015.51 1015.82 1016.10 1016.36 1016.59 1016.82 1017.07 1017.35
1007.11 1007.81 1008.63 1009.42 1010.04 1010.37 1010.36 1009.98 1009.29 1008.42 1007.49 1006.67 1006.05 1005.72 1005.70 1005.94 1006.39 1006.96 1007.54 1008.09 1008.57 1008.98 1009.34 1009.70 1010.11 1010.58 1011.11 1011.69 1012.27 1012.81 1013.26 1013.60 1013.82 1013.93 1013.99 1014.03 1014.09 1014.21 1014.39 1014.64 1014.93 1015.24 1015.53 1015.80 1016.04 1016.26 1016.48 1016.71 1016.97
1007.20 1008.10 1009.08 1009.99 1010.68 1011.02 1010.96 1010.49 1009.68 1008.65 1007.58 1006.61 1005.88 1005.47 1005.38 1005.60 1006.04 1006.61 1007.21 1007.77 1008.25 1008.65 1008.99 1009.33 1009.70 1010.15 1010.66 1011.23 1011.82 1012.37 1012.85 1013.21 1013.46 1013.60 1013.67 1013.72 1013.77 1013.88 1014.05 1014.29 1014.57 1014.87 1015.17 1015.44 1015.69 1015.90 1016.12 1016.34 1016.59
1007.23 1008.28 1009.37 1010.36 1011.08 1011.41 1011.30 1010.76 1009.85 1008.73 1007.55 1006.49 1005.69 1005.21 1005.09 1005.29 1005.73 1006.32 1006.93 1007.50 1007.99 1008.38 1008.70 1009.01 1009.34 1009.73 1010.19 1010.72 1011.28 1011.81 1012.29 1012.66 1012.92 1013.08 1013.17 1013.22 1013.29 1013.40 1013.57 1013.81 1014.09 1014.41 1014.72 1015.02 1015.29 1015.52 1015.75 1015.97 1016.22
1007.13 1008.26 1009.41 1010.41 1011.13 1011.45 1011.31 1010.73 1009.79 1008.63 1007.42 1006.34 1005.51 1005.02 1004.89 1005.09 1005.53 1006.12 1006.74 1007.32 1007.81 1008.19 1008.49 1008.75 1009.03 1009.36 1009.75 1010.21 1010.70 1011.19 1011.63 1011.99 1012.25 1012.42 1012.52 1012.59 1012.66 1012.78 1012.96 1013.21 1013.51 1013.85 1014.20 1014.53 1014.84 1015.11 1015.36 1015.59 1015.84
1006.88 1008.00 1009.13 1010.11 1010.79 1011.09 1010.94 1010.37 1009.47 1008.36 1007.21 1006.18 1005.40 1004.94 1004.83 1005.03 1005.47 1006.05 1006.67 1007.24 1007.72 1008.08 1008.35 1008.58 1008.79 1009.05 1009.36 1009.73 1010.14 1010.56 1010.95 1011.27 1011.51 1011.68 1011.78 1011.86 1011.94 1012.07 1012.26 1012.52 1012.84 1013.21 1013.59 1013.97 1014.32 1014.64 1014.93 1015.19 1015.44
1006.50 1007.53 1008.56 1009.44 1010.06 1010.33 1010.20 1009.71 1008.91 1007.93 1006.93 1006.03 1005.36 1004.98 1004.92 1005.14 1005.58 1006.14 1006.73 1007.28 1007.73 1008.06 1008.30 1008.48 1008.64 1008.82 1009.05 1009.33 1009.65 1009.99 1010.31 1010.58 1010.79 1010.93 1011.03 1011.11 1011.20 1011.33 1011.53 1011.79 1012.13 1012.51 1012.92 1013.34 1013.74 1014.11 1014.44 1014.73 1015.01
1006.06 1006.93 1007.79 1008.52 1009.04 1009.27 1009.19 1008.80 1008.17 1007.40 1006.61 1005.92 1005.41 1005.15 1005.16 1005.41 1005.83 1006.36 1006.91 1007.41 1007.82 1008.12 1008.33 1008.47 1008.57 1008.69 1008.85 1009.04 1009.27 1009.52 1009.76 1009.97 1010.14 1010.26 1010.34 1010.42 1010.50 1010.63 1010.81 1011.07 1011.40 1011.79 1012.21 1012.65 1013.09 1013.51 1013.89 1014.24 1014.55
Thickness
5851 5854 5853 5845 5820 5805 5809 5827 5836 5834 5837 5848 5850 5841 5827 5817 5804 5794 5827 5835 5825 5815 5806 5800 5797 5793 5791 5788 5786 5784 5782 5780 5778 5776 5774 5773 5771 5770 5768 5767 5765 5764 5763 5762 5761 5759 5758 5757 5757
5858 5861 5853 5834 5805 5792 5805 5831 5832 5836 5846 5853 5850 5842 5829 5821 5828 5826 5830 5830 5824 5815 5807 5801 5795 5792 5790 5787 5785 5782 5780 5778 5776 5775 5773 5771 5770 5768 5767 5766 5764 5763 5762 5760 5759 5758 5757 5756 5755
5858 5863 5842 5825 5811 5806 5813 5835 5840 5848 5856 5852 5842 5839 5829 5821 5828 5828 5831 5831 5824 5815 5806 5798 5794 5791 5788 5786 5783 5781 5779 5777 5775 5774 5772 5770 5769 5767 5766 5764 5763 5761 5760 5759 5758 5756 5755 5754 5753
5860 5855 5842 5827 5820 5833 5839 5846 5851 5847 5851 5854 5844 5827 5826 5836 5835 5834 5835 5831 5821 5812 5804 5796 5793 5790 5787 5784 5782 5780 5778 5776 5774 5772 5771 5769 5768 5766 5765 5763 5762 5760 5759 5758 5756 5755 5754 5753 5752
5862 5843 5825 5819 5831 5849 5859 5860 5857 5844 5845 5847 5839 5819 5816 5835 5842 5838 5834 5829 5820 5812 5803 5795 5791 5788 5785 5782 5780 5778 5777 5775 5773 5771 5770 5768 5766 5765 5764 5762 5760 5759 5757 5756 5755 5754 5753 5752 5751
5846 5841 5818 5811 5825 5850 5862 5865 5858 5848 5847 5846 5837 5819 5814 5833 5835 5834 5834 5828 5823 5813 5803 5793 5789 5786 5783 5781 5779 5777 5775 5774 5772 5770 5769 5767 5765 5764 5762 5760 5759 5757 5756 5755 5754 5753 5752 5751 5751
5839 5830 5823 5830 5831 5844 5859 5869 5858 5850 5844 5846 5844 5818 5815 5829 5834 5836 5833 5829 5823 5814 5803 5794 5788 5785 5782 5780 5778 5776 5774 5772 5770 5769 5768 5766 5764 5762 5761 5759 5758 5756 5755 5754 5753 5752 5751 5750 5750
5856 5838 5832 5839 5835 5843 5866 5871 5868 5858 5849 5862 5854 5820 5810 5826 5837 5836 5831 5827 5821 5814 5805 5797 5791 5786 5782 5779 5776 5775 5773 5771 5769 5768 5767 5765 5764 5762 5760 5758 5757 5755 5754 5753 5752 5751 5750 5750 5750
5862 5832 5828 5841 5845 5852 5869 5866 5869 5872 5859 5854 5854 5845 5835 5838 5837 5830 5824 5820 5816 5811 5806 5802 5795 5788 5785 5781 5777 5774 5772 5770 5769 5767 5766 5765 5764 5763 5760 5759 5756 5755 5754 5753 5752 5751 5750 5750 5750
5855 5830 5842 5861 5866 5866 5867 5865 5865 5857 5843 5835 5835 5841 5842 5838 5832 5824 5818 5813 5809 5806 5806 5805 5799 5793 5789 5785 5777 5775 5773 5770 5769 5768 5767 5765 5765 5764 5762 5758 5756 5755 5754 5753 5752 5751 5750 5750 5750
5855 5844 5857 5866 5873 5872 5867 5869 5871 5852 5831 5829 5825 5829 5834 5833 5828 5823 5819 5815 5811 5809 5807 5805 5799 5794 5791 5786 5780 5779 5777 5772 5770 5769 5768 5767 5766 5764 5761 5758 5756 5755 5754 5754 5753 5751 5751 5752 5753
5854 5857 5864 5866 5873 5871 5868 5869 5865 5858 5847 5848 5842 5838 5834 5830 5826 5823 5819 5816 5812 5808 5806 5804 5800 5795 5792 5788 5784 5782 5779 5774 5773 5770 5769 5768 5767 5766 5764 5761 5759 5757 5757 5755 5755 5755 5755 5755 5755
5852 5856 5866 5871 5872 5872 5869 5865 5863 5860 5865 5860 5850 5839 5834 5832 5829 5827 5824 5819 5812 5807 5805 5803 5798 5793 5790 5787 5784 5783 5780 5777 5775 5772 5770 5769 5768 5766 5765 5763 5761 5760 5759 5757 5757 5757 5757 5756 5755
5856 5859 5863 5868 5869 5869 5862 5862 5860 5860 5868 5857 5846 5839 5838 5835 5831 5826 5821 5816 5811 5807 5804 5801 5796 5791 5787 5784 5781 5781 5780 5777 5775 5773 5771 5769 5768 5766 5764 5762 5761 5761 5760 5759 5758 5758 5757 5756 5756
5857 5847 5850 5860 5865 5866 5860 5844 5851 5865 5865 5854 5847 5843 5839 5836 5832 5827 5823 5818 5813 5808 5804 5800 5795 5790 5785 5782 5779 5779 5779 5777 5775 5773 5770 5768 5768 5766 5764 5762 5761 5762 5761 5760 5758 5758 5757 5756 5756
5845 5834 5828 5852 5862 5865 5848 5825 5851 5866 5861 5851 5848 5843 5837 5832 5831 5830 5827 5821 5816 5810 5804 5799 5796 5789 5784 5780 5777 5777 5777 5776 5774 5772 5770 5768 5767 5765 5763 5762 5762 5762 5761 5760 5758 5758 5756 5756 5755
5827 5820 5828 5847 5864 5862 5848 5833 5854 5866 5859 5850 5847 5843 5837 5832 5832 5831 5828 5822 5817 5811 5805 5798 5795 5789 5783 5779 5776 5775 5775 5773 5773 5771 5770 5767 5765 5764 5762 5762 5762 5761 5761 5760 5759 5758 5757 5754 5754
5822 5830 5837 5844 5859 5855 5843 5841 5853 5862 5860 5852 5848 5844 5837 5831 5830 5831 5828 5823 5818 5812 5805 5799 5793 5788 5783 5778 5773 5772 5772 5771 5770 5770 5769 5766 5764 5763 5762 5761 5760 5760 5760 5759 5758 5757 5756 5755 5753
5834 5835 5837 5850 5863 5850 5840 5840 5849 5857 5855 5851 5847 5842 5835 5832 5834 5831 5827 5823 5817 5810 5804 5798 5791 5787 5782 5776 5771 5767 5766 5767 5767 5768 5767 5764 5763 5762 5761 5762 5760 5759 5759 5758 5758 5756 5754 5753 5754
5827 5823 5831 5847 5858 5845 5835 5836 5848 5852 5849 5850 5846 5839 5834 5831 5829 5826 5824 5820 5814 5808 5802 5797 5791 5786 5781 5777 5773 5770 5768 5766 5766 5766 5765 5764 5762 5761 5760 5759 5759 5758 5757 5757 5757 5755 5752 5752 5754
5818 5819 5826 5832 5844 5844 5830 5822 5834 5845 5850 5850 5850 5845 5840 5834 5827 5823 5820 5817 5813 5807 5802 5797 5791 5786 5781 5777 5772 5768 5765 5763 5762 5762 5762 5763 5762 5760 5760 5759 5758 5758 5757 5755 5755 5754 5751 5747 5751
5808 5829 5831 5829 5822 5816 5822 5797 5821 5831 5833 5838 5844 5844 5841 5836 5831 5826 5821 5815 5812 5807 5803 5798 5791 5786 5781 5776 5770 5765 5760 5758 5760 5761 5761 5761 5761 5760 5759 5758 5757 5757 5757 5756 5755 5755 5753 5749 5746
5819 5835 5829 5824 5817 5809 5815 5803 5809 5825 5812 5826 5837 5842 5840 5836 5832 5827 5822 5816 5812 5808 5802 5797 5790 5784 5779 5775 5770 5765 5762 5761 5760 5759 5758 5758 5758 5758 5758 5758 5757 5756 5756 5756 5755 5755 5754 5751 5749
5828 5824 5819 5816 5807 5786 5804 5799 5798 5814 5812 5821 5834 5838 5837 5835 5833 5827 5823 5817 5811 5807 5802 5795 5787 5782 5778 5774 5770 5765 5762 5759 5756 5756 5755 5755 5756 5756 5757 5757 5756 5756 5755 5755 5755 5754 5753 5751 5750
5817 5799 5778 5772 5772 5779 5811 5804 5805 5826 5833 5831 5831 5834 5835 5835 5830 5822 5817 5812 5807 5802 5798 5792 5785 5779 5776 5773 5769 5766 5763 5760 5757 5756 5755 5754 5754 5754 5755 5757 5756 5755 5754 5755 5754 5753 5751 5751 5749
5807 5801 5775 5763 5769 5783 5801 5797 5814 5837 5841 5840 5838 5836 5833 5831 5827 5820 5814 5809 5804 5800 5795 5789 5782 5777 5774 5772 5769 5766 5764 5761 5760 5758 5757 5755 5755 5756 5758 5757 5756 5755 5754 5754 5753 5752 5751 5750 5748
5803 5799 5811 5795 5788 5780 5786 5800 5815 5831 5833 5834 5832 5829 5826 5827 5823 5818 5812 5808 5803 5798 5793 5789 5782 5777 5773 5771 5768 5766 5764 5762 5760 5758 5757 5756 5756 5757 5757 5756 5755 5754 5753 5752 5751 5750 5749 5748 5747
5819 5813 5801 5790 5771 5767 5781 5786 5790 5804 5813 5821 5823 5823 5823 5823 5819 5815 5810 5805 5800 5797 5793 5789 5784 5777 5774 5771 5768 5766 5763 5762 5761 5758 5756 5755 5755 5756 5755 5754 5754 5753 5752 5751 5749 5748 5748 5746 5745
5803 5803 5802 5797 5792 5774 5766 5776 5811 5808 5814 5816 5818 5820 5820 5818 5814 5810 5807 5804 5799 5795 5791 5786 5781 5776 5772 5769 5767 5764 5763 5761 5760 5757 5756 5755 5754 5754 5753 5752 5751 5750 5749 5748 5746 5745 5744 5743 5741
5812 5806 5801 5780 5778 5787 5778 5774 5814 5812 5818 5819 5817 5817 5817 5813 5811 5806 5803 5800 5796 5792 5789 5784 5780 5776 5772 5769 5766 5763 5761 5760 5757 5755 5755 5754 5752 5751 5750 5750 5749 5747 5746 5745 5744 5742 5742 5740 5738